| time (UTC) | temp F | wind direction | speed knots | gust knots | rain 1hr in | rain 24hr in | rain mn in | humidity % | barometer mb |
| 20260504031001 | 45 | 52 | 0.0 | 1.7 | 0.00 | 0.00 | 0.00 | 61 | 1014.4 |
| 20260504030500 | 45 | 68 | 0.9 | 1.7 | 0.00 | 0.00 | 0.00 | 61 | 1014.3 |
| 20260504030006 | 45 | 53 | 0.0 | 1.7 | 0.00 | 0.00 | 0.00 | 62 | 1014.6 |
| 20260504025500 | 44 | 88 | 0.0 | 0.9 | 0.00 | 0.00 | 0.00 | 62 | 1014.2 |
| 20260504025001 | 44 | 116 | 0.9 | 1.7 | 0.00 | 0.00 | 0.00 | 62 | 1014.5 |
| 20260504024502 | 44 | 73 | 0.9 | 0.9 | 0.00 | 0.00 | 0.00 | 62 | 1014.7 |
| 20260504024000 | 44 | 8 | 0.0 | 0.9 | 0.00 | 0.00 | 0.00 | 61 | 1014.6 |
| 20260504023501 | 46 | 282 | 0.0 | 0.9 | 0.00 | 0.00 | 0.00 | 58 | 1014.6 |
| 20260504023005 | 46 | 119 | 0.0 | 0.9 | 0.00 | 0.00 | 0.00 | 58 | 1014.7 |
| 20260504022511 | 46 | 113 | 0.0 | 0.9 | 0.00 | 0.00 | 0.00 | 57 | 1014.8 |
| 20260504022001 | 46 | 67 | 0.0 | 0.9 | 0.00 | 0.00 | 0.00 | 57 | 1014.6 |
| 20260504021500 | 46 | 89 | 0.0 | 0.9 | 0.00 | 0.00 | 0.00 | 56 | 1014.7 |
| 20260504021001 | 47 | 65 | 0.0 | 1.7 | 0.00 | 0.00 | 0.00 | 56 | 1014.7 |
| 20260504020506 | 47 | 89 | 0.0 | 0.9 | 0.00 | 0.00 | 0.00 | 56 | 1014.6 |
| 20260504020001 | 47 | 157 | 0.0 | 1.7 | 0.00 | 0.00 | 0.00 | 56 | 1014.6 |
| 20260504015516 | 48 | 89 | 0.0 | 0.9 | 0.00 | 0.00 | 0.00 | 55 | 1014.9 |
| 20260504015001 | 48 | 106 | 0.0 | 0.9 | 0.00 | 0.00 | 0.00 | 54 | 1014.7 |
| 20260504014501 | 49 | 69 | 0.0 | 1.7 | 0.00 | 0.00 | 0.00 | 53 | 1014.5 |
| 20260504014001 | 49 | 145 | 0.0 | 0.9 | 0.00 | 0.00 | 0.00 | 53 | 1014.5 |
| 20260504013500 | 50 | 113 | 0.0 | 0.0 | 0.00 | 0.00 | 0.00 | 51 | 1014.3 |
| 20260504013001 | 50 | 142 | 0.0 | 0.9 | 0.00 | 0.00 | 0.00 | 50 | 1014.4 |
| 20260504012500 | 50 | 214 | 0.0 | 1.7 | 0.00 | 0.00 | 0.00 | 49 | 1014.5 |
| 20260504012001 | 50 | 274 | 0.9 | 1.7 | 0.00 | 0.00 | 0.00 | 50 | 1014.3 |
| 20260504011500 | 51 | 166 | 0.0 | 1.7 | 0.00 | 0.00 | 0.00 | 48 | 1014.5 |
| 20260504011001 | 52 | 39 | 0.0 | 1.7 | 0.00 | 0.00 | 0.00 | 47 | 1014.6 |
| 20260504010500 | 53 | 206 | 3.5 | 4.3 | 0.00 | 0.00 | 0.00 | 45 | 1014.6 |
| 20260504010011 | 53 | 252 | 2.6 | 3.5 | 0.00 | 0.00 | 0.00 | 45 | 1014.4 |
| 20260504005501 | 53 | 235 | 1.7 | 4.3 | 0.00 | 0.00 | 0.00 | 45 | 1014.6 |
| 20260504005000 | 53 | 224 | 1.7 | 3.5 | 0.00 | 0.00 | 0.00 | 44 | 1014.5 |
| 20260504004500 | 54 | 222 | 0.9 | 3.5 | 0.00 | 0.00 | 0.00 | 44 | 1014.4 |
| 20260504004016 | 54 | 249 | 2.6 | 7.0 | 0.00 | 0.00 | 0.00 | 43 | 1014.4 |
| 20260504003505 | 54 | 228 | 3.5 | 7.8 | 0.00 | 0.00 | 0.00 | 43 | 1014.4 |
| 20260504003001 | 54 | 218 | 2.6 | 6.1 | 0.00 | 0.00 | 0.00 | 43 | 1014.4 |
| 20260504002500 | 54 | 264 | 3.5 | 8.7 | 0.00 | 0.00 | 0.00 | 42 | 1014.4 |
| 20260504002001 | 55 | 227 | 9.6 | 10.4 | 0.00 | 0.00 | 0.00 | 42 | 1014.6 |
| 20260504001500 | 54 | 227 | 2.6 | 6.1 | 0.00 | 0.00 | 0.00 | 42 | 1014.3 |
| 20260504001001 | 55 | 223 | 3.5 | 5.2 | 0.00 | 0.00 | 0.00 | 42 | 1014.2 |
| 20260504000500 | 55 | 239 | 4.3 | 6.1 | 0.00 | 0.00 | 0.00 | 41 | 1014.4 |
| 20260504000001 | 55 | 239 | 7.8 | 11.3 | 0.00 | 0.00 | 0.00 | 40 | 1014.2 |
| 20260503235500 | 55 | 233 | 6.1 | 10.4 | 0.00 | 0.00 | 0.00 | 41 | 1014.2 |
| 20260503235001 | 55 | 216 | 5.2 | 6.1 | 0.00 | 0.00 | 0.00 | 41 | 1014.3 |
| 20260503234501 | 55 | 226 | 5.2 | 7.8 | 0.00 | 0.00 | 0.00 | 41 | 1014.3 |
| 20260503234000 | 56 | 174 | 2.6 | 8.7 | 0.00 | 0.00 | 0.00 | 41 | 1014.4 |
| 20260503233501 | 56 | 205 | 7.8 | 11.3 | 0.00 | 0.00 | 0.00 | 40 | 1014.4 |
| 20260503233000 | 56 | 233 | 6.1 | 11.3 | 0.00 | 0.00 | 0.00 | 39 | 1014.3 |
| 20260503232501 | 56 | 261 | 5.2 | 7.8 | 0.00 | 0.00 | 0.00 | 40 | 1014.3 |
| 20260503232000 | 56 | 225 | 2.6 | 9.6 | 0.00 | 0.00 | 0.00 | 41 | 1014.2 |
| 20260503231511 | 56 | 264 | 2.6 | 9.6 | 0.00 | 0.00 | 0.00 | 39 | 1014.4 |
| 20260503231005 | 56 | 208 | 3.5 | 7.0 | 0.00 | 0.00 | 0.00 | 39 | 1014.3 |
| 20260503230501 | 56 | 248 | 7.0 | 9.6 | 0.00 | 0.00 | 0.00 | 38 | 1014.3 |
| 20260503230001 | 56 | 206 | 8.7 | 9.6 | 0.00 | 0.00 | 0.00 | 40 | 1014.4 |
| 20260503225501 | 57 | 235 | 9.6 | 10.4 | 0.00 | 0.00 | 0.00 | 38 | 1014.4 |
| 20260503225001 | 57 | 233 | 7.8 | 8.7 | 0.00 | 0.00 | 0.00 | 38 | 1014.5 |
| 20260503224500 | 56 | 161 | 1.7 | 5.2 | 0.00 | 0.00 | 0.00 | 42 | 1014.5 |
| 20260503224001 | 57 | 221 | 5.2 | 7.0 | 0.00 | 0.00 | 0.00 | 40 | 1014.4 |
| 20260503223506 | 57 | 252 | 6.1 | 8.7 | 0.00 | 0.00 | 0.00 | 38 | 1014.4 |
| 20260503223011 | 57 | 266 | 0.9 | 5.2 | 0.00 | 0.00 | 0.00 | 38 | 1014.5 |
| 20260503222500 | 57 | 214 | 3.5 | 9.6 | 0.00 | 0.00 | 0.00 | 38 | 1014.6 |
| 20260503222001 | 58 | 203 | 5.2 | 9.6 | 0.00 | 0.00 | 0.00 | 37 | 1014.3 |
| 20260503221500 | 57 | 225 | 4.3 | 14.8 | 0.00 | 0.00 | 0.00 | 37 | 1014.4 |
| 20260503221001 | 57 | 227 | 5.2 | 7.8 | 0.00 | 0.00 | 0.00 | 37 | 1014.6 |
| 20260503220501 | 60 | 262 | 6.1 | 13.0 | 0.00 | 0.00 | 0.00 | 35 | 1014.4 |
| 20260503220001 | 60 | 234 | 9.6 | 9.6 | 0.00 | 0.00 | 0.00 | 36 | 1014.6 |
| 20260503215500 | 59 | 209 | 1.7 | 10.4 | 0.00 | 0.00 | 0.00 | 40 | 1014.4 |
| 20260503215001 | 58 | 236 | 5.2 | 9.6 | 0.00 | 0.00 | 0.00 | 37 | 1014.5 |
| 20260503214506 | 58 | 239 | 9.6 | 16.5 | 0.00 | 0.00 | 0.00 | 36 | 1014.6 |
| 20260503214000 | 58 | 259 | 1.7 | 7.8 | 0.00 | 0.00 | 0.00 | 36 | 1014.4 |
| 20260503213501 | 60 | 207 | 3.5 | 7.8 | 0.00 | 0.00 | 0.00 | 37 | 1014.2 |
| 20260503213000 | 60 | 221 | 4.3 | 8.7 | 0.00 | 0.00 | 0.00 | 35 | 1014.3 |
| 20260503212501 | 59 | 265 | 7.0 | 9.6 | 0.00 | 0.00 | 0.00 | 36 | 1014.4 |
| 20260503212001 | 58 | 234 | 3.5 | 11.3 | 0.00 | 0.00 | 0.00 | 38 | 1014.2 |
| 20260503211501 | 57 | 227 | 2.6 | 10.4 | 0.00 | 0.00 | 0.00 | 38 | 1014.3 |
| 20260503211000 | 59 | 252 | 3.5 | 13.9 | 0.00 | 0.00 | 0.00 | 36 | 1014.4 |
| 20260503210501 | 59 | 282 | 3.5 | 11.3 | 0.00 | 0.00 | 0.00 | 37 | 1014.5 |
| 20260503210000 | 58 | 251 | 2.6 | 4.3 | 0.00 | 0.00 | 0.00 | 37 | 1014.4 |
| 20260503205506 | 57 | 213 | 5.2 | 11.3 | 0.00 | 0.00 | 0.00 | 38 | 1014.5 |
| 20260503205000 | 59 | 31 | 3.5 | 13.0 | 0.00 | 0.00 | 0.00 | 37 | 1014.5 |
| 20260503204506 | 57 | 229 | 2.6 | 7.8 | 0.00 | 0.00 | 0.00 | 37 | 1014.5 |
| 20260503204000 | 58 | 259 | 4.3 | 9.6 | 0.00 | 0.00 | 0.00 | 38 | 1014.7 |
| 20260503203501 | 59 | 277 | 6.1 | 9.6 | 0.00 | 0.00 | 0.00 | 37 | 1014.8 |
| 20260503203001 | 57 | 219 | 8.7 | 13.0 | 0.00 | 0.00 | 0.00 | 37 | 1014.7 |
| 20260503202511 | 57 | 236 | 5.2 | 14.8 | 0.00 | 0.00 | 0.00 | 37 | 1014.9 |
| 20260503202000 | 57 | 229 | 7.0 | 14.8 | 0.00 | 0.00 | 0.00 | 36 | 1015.0 |
| 20260503201506 | 59 | 240 | 15.6 | 19.1 | 0.00 | 0.00 | 0.00 | 35 | 1014.9 |
| 20260503201000 | 58 | 259 | 6.1 | 7.8 | 0.00 | 0.00 | 0.00 | 37 | 1014.7 |
| 20260503200501 | 56 | 248 | 7.0 | 13.0 | 0.00 | 0.00 | 0.00 | 38 | 1015.0 |
| 20260503200000 | 59 | 214 | 6.1 | 10.4 | 0.00 | 0.00 | 0.00 | 36 | 1015.2 |
| 20260503195501 | 57 | 248 | 5.2 | 9.6 | 0.00 | 0.00 | 0.00 | 39 | 1015.0 |
| 20260503195000 | 58 | 233 | 13.0 | 15.6 | 0.00 | 0.00 | 0.00 | 37 | 1015.5 |
| 20260503194506 | 58 | 244 | 11.3 | 14.8 | 0.00 | 0.00 | 0.00 | 37 | 1015.4 |
| 20260503194001 | 57 | 212 | 7.0 | 11.3 | 0.00 | 0.00 | 0.00 | 39 | 1015.4 |
| 20260503193501 | 56 | 277 | 2.6 | 12.2 | 0.00 | 0.00 | 0.00 | 39 | 1015.5 |
| 20260503193000 | 56 | 273 | 3.5 | 7.8 | 0.00 | 0.00 | 0.00 | 40 | 1015.5 |
| 20260503192511 | 56 | 260 | 2.6 | 12.2 | 0.00 | 0.00 | 0.00 | 39 | 1015.6 |
| 20260503192001 | 56 | 230 | 5.2 | 15.6 | 0.00 | 0.00 | 0.00 | 39 | 1015.7 |
| 20260503191501 | 57 | 230 | 7.0 | 11.3 | 0.00 | 0.00 | 0.00 | 39 | 1015.9 |
| 20260503191001 | 57 | 237 | 13.0 | 16.5 | 0.00 | 0.00 | 0.00 | 38 | 1015.8 |
| 20260503190501 | 57 | 245 | 7.8 | 9.6 | 0.00 | 0.00 | 0.00 | 42 | 1015.7 |
| 20260503190000 | 56 | 241 | 4.3 | 11.3 | 0.00 | 0.00 | 0.00 | 38 | 1015.8 |
| 20260503185501 | 57 | 277 | 6.1 | 13.9 | 0.00 | 0.00 | 0.00 | 39 | 1016.1 |
| 20260503185000 | 59 | 234 | 5.2 | 6.1 | 0.00 | 0.00 | 0.00 | 41 | 1016.2 |
| 20260503184501 | 57 | 267 | 3.5 | 11.3 | 0.00 | 0.00 | 0.00 | 40 | 1016.2 |
| 20260503184000 | 57 | 274 | 4.3 | 9.6 | 0.00 | 0.00 | 0.00 | 42 | 1016.0 |
| 20260503183501 | 55 | 230 | 7.8 | 14.8 | 0.00 | 0.00 | 0.00 | 39 | 1016.3 |
| 20260503183000 | 56 | 241 | 6.1 | 8.7 | 0.00 | 0.00 | 0.00 | 39 | 1016.1 |
| 20260503182511 | 56 | 237 | 5.2 | 11.3 | 0.00 | 0.00 | 0.00 | 39 | 1016.3 |
| 20260503182001 | 57 | 232 | 8.7 | 13.0 | 0.00 | 0.00 | 0.00 | 39 | 1016.3 |
| 20260503181501 | 55 | 311 | 1.7 | 5.2 | 0.00 | 0.00 | 0.00 | 41 | 1016.3 |
| 20260503181001 | 55 | 225 | 9.6 | 10.4 | 0.00 | 0.00 | 0.00 | 40 | 1016.4 |
| 20260503180501 | 56 | 221 | 7.8 | 14.8 | 0.00 | 0.00 | 0.00 | 40 | 1016.4 |
| 20260503180000 | 55 | 241 | 7.8 | 7.8 | 0.00 | 0.00 | 0.00 | 42 | 1016.6 |
| 20260503175501 | 55 | 29 | 5.2 | 7.0 | 0.00 | 0.00 | 0.00 | 40 | 1016.7 |
| 20260503175006 | 56 | 215 | 3.5 | 12.2 | 0.00 | 0.00 | 0.00 | 40 | 1016.7 |
| 20260503174500 | 55 | 244 | 10.4 | 11.3 | 0.00 | 0.00 | 0.00 | 40 | 1016.7 |
| 20260503174002 | 54 | 204 | 6.1 | 10.4 | 0.00 | 0.00 | 0.00 | 44 | 1016.9 |
| 20260503173501 | 55 | 261 | 4.3 | 7.0 | 0.00 | 0.00 | 0.00 | 41 | 1016.9 |
| 20260503173007 | 53 | 51 | 2.6 | 7.8 | 0.00 | 0.00 | 0.00 | 43 | 1016.9 |
| 20260503172500 | 54 | 261 | 6.1 | 8.7 | 0.00 | 0.00 | 0.00 | 41 | 1016.8 |
| 20260503172006 | 56 | 236 | 2.6 | 5.2 | 0.00 | 0.00 | 0.00 | 42 | 1016.9 |
| 20260503171500 | 53 | 273 | 0.0 | 7.0 | 0.00 | 0.00 | 0.00 | 39 | 1017.0 |
| 20260503171001 | 54 | 257 | 5.2 | 9.6 | 0.00 | 0.00 | 0.00 | 43 | 1017.0 |
| 20260503170506 | 53 | 235 | 7.0 | 18.2 | 0.00 | 0.00 | 0.00 | 41 | 1017.2 |
| 20260503151001 | 51 | 223 | 1.7 | 10.4 | 0.00 | 0.00 | 0.00 | 44 | 1017.7 |
| 20260503150500 | 50 | 257 | 7.0 | 11.3 | 0.00 | 0.00 | 0.00 | 43 | 1017.9 |
| 20260503131000 | 42 | 252 | 4.3 | 9.6 | 0.00 | 0.00 | 0.00 | 68 | 1018.3 |
| 20260503130501 | 42 | 226 | 5.2 | 9.6 | 0.00 | 0.00 | 0.00 | 70 | 1018.3 |
| 20260503110500 | 30 | 66 | 0.0 | 0.9 | 0.00 | 0.00 | 0.00 | 96 | 1017.4 |
| 20260503090501 | 30 | 98 | 0.0 | 0.9 | 0.00 | 0.00 | 0.00 | 96 | 1016.8 |
| 20260503081500 | 30 | 76 | 0.0 | 0.9 | 0.00 | 0.00 | 0.00 | 95 | 1016.8 |
| 20260503081000 | 30 | 113 | 0.0 | 0.9 | 0.00 | 0.00 | 0.00 | 95 | 1016.9 |
| 20260503080501 | 30 | 116 | 0.0 | 0.9 | 0.00 | 0.00 | 0.00 | 95 | 1017.0 |
| 20260503072501 | 31 | 133 | 0.0 | 0.9 | 0.00 | 0.00 | 0.00 | 95 | 1016.6 |
| 20260503072000 | 32 | 214 | 0.0 | 1.7 | 0.00 | 0.00 | 0.00 | 95 | 1016.8 |
| 20260503071500 | 32 | 192 | 0.0 | 0.9 | 0.00 | 0.00 | 0.00 | 95 | 1016.7 |
| 20260503071001 | 32 | 233 | 0.9 | 1.7 | 0.00 | 0.00 | 0.00 | 95 | 1016.7 |
| 20260503070500 | 32 | 124 | 0.0 | 0.0 | 0.00 | 0.00 | 0.00 | 95 | 1016.6 |
| 20260503055001 | 33 | 147 | 0.0 | 0.9 | 0.00 | 0.00 | 0.00 | 94 | 1017.0 |
| 20260503054500 | 33 | 218 | 0.0 | 0.9 | 0.00 | 0.00 | 0.00 | 94 | 1016.9 |
| 20260503054001 | 33 | 13 | 0.0 | 0.9 | 0.00 | 0.00 | 0.00 | 94 | 1016.9 |
| 20260503053511 | 33 | 52 | 0.0 | 0.9 | 0.00 | 0.00 | 0.00 | 94 | 1017.1 |
| 20260503053001 | 33 | 30 | 0.0 | 0.9 | 0.00 | 0.00 | 0.00 | 94 | 1017.1 |
| 20260503052500 | 33 | 65 | 0.0 | 1.7 | 0.00 | 0.00 | 0.00 | 94 | 1016.9 |
| 20260503052001 | 32 | 76 | 0.0 | 0.9 | 0.00 | 0.00 | 0.00 | 94 | 1017.0 |
| 20260503051506 | 32 | 64 | 0.0 | 0.0 | 0.00 | 0.00 | 0.00 | 94 | 1016.9 |
| 20260503051006 | 33 | 119 | 0.0 | 0.9 | 0.00 | 0.00 | 0.00 | 94 | 1017.3 |
| 20260503050500 | 33 | 82 | 0.0 | 1.7 | 0.00 | 0.00 | 0.00 | 94 | 1017.1 |
| 20260503050001 | 33 | 52 | 0.0 | 1.7 | 0.00 | 0.00 | 0.00 | 94 | 1017.2 |
| 20260503045500 | 33 | 214 | 0.9 | 1.7 | 0.00 | 0.00 | 0.00 | 94 | 1017.0 |
| 20260503045001 | 32 | 124 | 0.0 | 1.7 | 0.00 | 0.00 | 0.00 | 93 | 1017.2 |
| 20260503044500 | 32 | 288 | 0.0 | 0.9 | 0.00 | 0.00 | 0.00 | 93 | 1017.2 |
| 20260503044001 | 32 | 304 | 0.0 | 0.9 | 0.00 | 0.00 | 0.00 | 93 | 1017.1 |
| 20260503043501 | 32 | 229 | 0.0 | 0.0 | 0.00 | 0.00 | 0.00 | 93 | 1017.2 |
| 20260503043001 | 32 | 180 | 0.0 | 0.9 | 0.00 | 0.00 | 0.00 | 93 | 1017.3 |
| 20260503042505 | 33 | 212 | 0.0 | 0.9 | 0.00 | 0.00 | 0.00 | 92 | 1017.4 |
| 20260503042001 | 33 | 329 | 0.0 | 1.7 | 0.00 | 0.00 | 0.00 | 92 | 1017.1 |
| 20260503041500 | 32 | 60 | 0.0 | 0.9 | 0.00 | 0.00 | 0.00 | 92 | 1017.2 |
| 20260503041001 | 33 | 46 | 0.0 | 1.7 | 0.00 | 0.00 | 0.00 | 92 | 1017.2 |
| 20260503040501 | 33 | 54 | 0.9 | 1.7 | 0.00 | 0.00 | 0.00 | 91 | 1017.1 |
| 20260503040001 | 32 | 62 | 0.9 | 1.7 | 0.00 | 0.00 | 0.03 | 91 | 1017.2 |
| 20260503035501 | 32 | 20 | 0.0 | 1.7 | 0.00 | 0.00 | 0.03 | 91 | 1017.2 |
| 20260503035016 | 33 | 60 | 0.0 | 0.9 | 0.00 | 0.00 | 0.03 | 90 | 1017.2 |
| 20260503034500 | 33 | 89 | 0.0 | 0.9 | 0.00 | 0.00 | 0.03 | 90 | 1017.2 |
| 20260503034001 | 33 | 89 | 0.0 | 0.9 | 0.00 | 0.00 | 0.03 | 89 | 1017.2 |
| 20260503033501 | 33 | 72 | 0.0 | 1.7 | 0.00 | 0.00 | 0.03 | 89 | 1017.2 |
| 20260503033000 | 33 | 341 | 0.0 | 0.9 | 0.00 | 0.00 | 0.03 | 88 | 1017.1 |
| 20260503032501 | 34 | 66 | 0.0 | 0.9 | 0.00 | 0.00 | 0.03 | 88 | 1017.2 |
| 20260503032001 | 34 | 135 | 0.0 | 0.9 | 0.00 | 0.00 | 0.03 | 87 | 1017.2 |
| 20260503031500 | 34 | 146 | 0.0 | 0.9 | 0.00 | 0.00 | 0.03 | 86 | 1017.1 |